FENGYUN 1C DEB *, 47025

Orbit data source: Space-Track

FENGYUN 1C DEB *, 47025 is space debris in SSO originally from a launch on Mon, 10 May 1999 UTC launched from the Taiyaun Space Center, China (TSC). Fengyun 1C debris stems from the Chinese weather satellite Fengyun-1C, which was intentionally destroyed by a Chinese anti-satellite missile in 2007. This event dramatically increased the amount of space debris, with thousands of trackable fragments posing hazards to satellites and human spaceflight. The Fengyun 1C debris cloud has become a focal point in discussions about space sustainability and the need for international regulations to prevent the creation of new debris.

Loading next visibility...
Identifier
47025, 1999-025FBB
Orbit
SSO
Country
Flag of CNCN / PRC
Related business
Manufacturer
Unknown
Mission
Spacecraft
Bus & Motor
Unknown
Mass
Unknown
Launch date (UTC)
1999-05-10 (27 years ago)
Launch vehicle
Unknown
Launch site
Taiyaun Space Center, China (TSC)
Object type
Payload
Rocket body
Debris
Shape & HBR
Unknown shape, 0.1 m
Radar Cross Section
Small (<0.1 m²)

Expand to show TLE details & history
Last TLE update: 1 day ago

TLE from 1 day ago
0 FENGYUN 1C DEB *
1 47025U 99025FBB 26206.89815462  .00005392  00000-0  14128-2 0  9999
2 47025  99.0252  73.6851 0039792  45.8003 327.8955 14.49250507660005
Epoch: 2026-07-25T21:33Z
TLE epoch observation values (Epoch: 2026-07-25T21:33:20.559Z)
Latitude
13.24772°
Longitude
164.61411°
Altitude
706.365 km
Speed
7.516 km/s
True Right ascension
04h 46m 12s
True Declination
13° 10' 14"
Sunlit
Object was in daylight at epoch
Visualization orbit readout
Latitude
Unknown
Longitude
Unknown
Altitude
Unknown
Speed
Unknown
Apparent Right ascension
Unknown
Apparent Declination
Unknown
Sunlit
N/A
Visualization observer readout
Local Sidereal Time
20:30:15
Azimuth
Unknown
Elevation
Unknown
Doppler factor
Unknown
Orbital elements
Apogee altitude
753.498 km
Perigee altitude
696.967 km
Semi-major axis
7,103.37 km
Eccentricity
0.00398
Inclination
99.0252°
RAAN
73.6851°
Arg. of periapsis
45.8003°
True anomaly
327.65214°
Mean anomaly
327.8955°
Eccentric anomaly
327.77392°
Mean motion
3.62532 °/min
Orbital period
99.3 mins
BSTAR
0.0014128
Loading maneuver chart data...
Computing Atmospheric mass density...

Documentation

Showing up to 5 results
|